Vertical_Velocity
-1 -0 2 -1 1 1 1 1 1 1 1 -0 2 0 -1 -0 -1 -1 -1 2 2 0 -1 1 -0 -0 -0 1 1 -1 0 -0 -1 0 1 -1 -0 -3 -3 -1 2 -4 -5 3 5
-2 0 1 1 0 1 -2 1 1 -0 1 -1 2 1 -0 0 1 -1 1 1 1 0 -1 -0 -0 -1 -0 0 -1 -1 -1 1 -1 -1 1 -1 -0 -3 3 -2 -6 1 5 0 -1
-2 1 0 1 1 1 0 1 1 -0 0 1 3 -1 -1 2 -1 1 -3 1 1 1 -0 -1 -1 0 -0 -3 1 -2 0 0 -1 0 -0 -1 -1 0 -1 -2 1 2 0 3 -4
-3 2 1 1 -0 1 0 -1 1 1 1 1 0 1 -2 0 1 -2 1 1 1 -0 0 -1 -1 -2 -1 1 1 -0 -0 -2 -0 -0 0 0 1 1 -2 -0 2 1 -6 8 -2
-3 -0 -0 3 1 -1 1 -1 1 2 2 1 -2 0 -1 -1 4 -0 3 -2 3 0 1 -2 -1 0 -2 -0 0 1 0 0 -2 2 -0 -0 -2 1 -5 0 0 0 -0 -2 3
5 3 0 3 -2 0 0 -2 1 4 0 -1 -1 -0 -1 -2 -0 -1 1 -2 3 1 0 1 -2 2 -2 1 -1 -0 -1 1 -1 1 2 1 -3 -1 -5 1 -2 2 -1 -4 5
4 -4 6 1 -0 1 -0 0 -3 2 1 -0 0 -0 -1 1 1 -1 -0 -2 3 1 2 -0 -1 -1 1 2 -3 -2 1 -0 -0 -2 4 4 -7 -2 -4 -0 2 1 -0 -0 -4
-1 3 4 5 -2 2 -0 -0 1 1 -1 1 1 1 -0 0 3 -2 -1 -2 2 0 1 1 1 -2 -1 0 -0 -5 -1 1 6 -2 2 0 -1 -9 -5 4 3 0 1 2 2
-0 -1 2 0 -2 -2 5 1 -1 2 1 1 -1 1 -4 1 1 -1 -2 0 1 2 1 -1 -0 -1 -2 -0 1 -6 5 -3 -7 2 0 -4 8 -15 -6 1 1 -1 -1 -1 1
1 -3 -2 5 -5 -0 -2 3 3 1 1 2 -1 -2 -3 4 -2 -1 -4 -1 -0 1 -0 1 -1 -0 -1 -3 3 -3 -8 -2 -3 -5 4 -5 4 4 -5 -7 -1 -0 0 -2 1
0 0 6 -8 -1 -3 4 3 1 2 0 0 1 -2 -0 0 1 -3 -2 1 0 1 -3 3 -2 -1 -1 -2 -2 -2 -1 -0 -2 0 1 -6 -2 -3 1 -1 -2 2 1 2 -0
0 -1 -2 1 -2 5 -3 1 1 1 -0 1 -5 -0 1 -0 -1 3 -3 2 1 -1 0 0 0 -2 1 -1 -1 -4 -0 -2 3 -1 2 0 -3 -4 -3 3 1 -1 -0 0 1
3 1 1 -6 -0 4 -3 -3 -2 -3 -5 -6 -1 -0 1 -3 1 2 -2 0 -1 -1 0 -0 1 -0 3 -0 0 -3 -0 1 -0 1 -5 0 -1 -4 -6 1 4 0 1 -0 -0
-1 -2 1 1 0 -1 1 7 -3 -3 -0 -1 4 3 -1 2 3 2 -3 -1 -3 1 1 1 0 0 1 -1 -3 -1 -1 -1 -2 -2 -2 -5 5 1 -13 -5 -1 8 -8 -1 0
-1 1 -2 1 -0 2 2 3 -3 -2 -5 -1 2 -0 2 2 -0 -0 -1 -2 -0 0 -1 3 1 2 -0 -1 -2 0 -1 -1 -0 -3 -1 1 -1 -0 -8 2 -9 -0 -1 5 0
-0 1 3 -2 -1 -0 -3 -3 -2 -1 -2 0 1 2 3 1 -1 2 1 -2 1 1 1 -3 1 0 1 -1 -3 -1 1 -3 -1 -1 0 4 1 9 0 -2 -7 1 -3 3 1
-4 2 2 -0 0 1 -2 -1 -1 1 -2 3 2 2 1 -1 -0 1 -1 -2 -0 -0 -1 2 -0 -1 -3 -3 -4 -1 -4 -2 -5 -3 -5 -5 -6 1 1 -4 -3 -1 -6 7 -5
-0 1 2 2 1 -1 -0 -0 -0 2 2 -0 0 -1 -0 0 2 -0 1 -1 2 -1 -1 -0 -1 -1 -1 -2 -2 -2 -2 -1 -4 -3 2 -3 0 4 -1 -1 -1 4 -3 -3 -4
2 4 1 3 3 -1 -1 -2 3 -5 2 2 0 0 1 -0 1 0 1 -1 0 1 -3 -4 -2 3 -1 2 -1 3 2 0 -6 4 -5 4 0 4 -7 -4 -1 -3 -3 1 1
1 -0 1 -1 2 0 -1 3 -0 6 0 -2 1 4 -1 5 -0 2 -4 8 -3 1 -2 0 -1 -1 -3 1 -4 -2 0 -0 -3 -8 -7 4 2 4 -0 -8 -4 -8 -13 -4 3
-1 1 1 3 1 -0 1 2 -4 3 0 1 2 -0 0 -4 5 -5 3 -2 2 0 0 0 1 -1 -2 0 -1 1 3 3 1 2 -10 -10 9 -2 2 1 3 2 3 -1 1
0 1 -1 -1 -1 2 3 -1 10 -1 1 -0 2 1 1 -2 1 -0 -5 4 -2 1 1 -0 -3 -1 -1 -2 -2 -1 3 -1 -6 1 1 -9 24 3 1 -5 -7 -8 -8 -5 -6
-2 0 1 -2 -2 3 4 -1 -1 -3 1 2 1 0 1 -0 -3 -1 1 -2 1 2 -0 1 -6 -4 4 3 -2 1 3 4 -2 -1 8 -2 5 -1 -1 8 5 -1 -4 -2 -2
-2 -3 2 1 3 4 5 -5 -1 2 -0 -1 1 2 1 0 0 0 -1 3 3 -0 -1 -4 5 -6 -2 1 -7 -4 -0 -10 -10 -3 -7 6 -1 -5 -2 1 0 3 4 1 1
0 4 6 2 4 3 -10 0 2 5 -1 -1 2 3 -1 1 0 -1 -1 2 2 -1 2 -5 1 -5 0 2 -5 2 1 -1 -3 3 -7 4 -2 -5 -1 4 4 -1 1 1 0
-0 2 7 1 3 -1 -5 8 1 1 1 2 1 1 -2 3 -5 -2 6 -0 -4 7 1 -2 2 -4 0 -1 -2 8 0 3 -1 3 1 -6 6 -5 -6 -3 0 -11 -6 -2 -2
3 5 -4 1 -1 -11 6 5 4 -2 3 2 3 -6 4 -3 4 -2 -1 -0 -1 -0 1 1 -2 -7 2 -1 -2 2 4 3 2 1 7 0 3 5 2 -4 0 -1 -6 0 -5
Height
5839 5841 5844 5844 5847 5851 5851 5855 5857 5858 5859 5860 5861 5861 5862 5861 5862 5864 5865 5867 5868 5868 5869 5868 5867 5869 5869 5867 5866 5866 5865 5862 5862 5861 5861 5859 5859 5857 5857 5856 5856 5855 5855 5856 5856
5836 5837 5840 5841 5843 5847 5849 5851 5853 5854 5856 5858 5857 5859 5858 5859 5860 5862 5864 5864 5865 5866 5867 5866 5866 5867 5867 5866 5864 5864 5864 5861 5859 5859 5859 5857 5856 5854 5855 5853 5851 5852 5853 5852 5852
5831 5834 5836 5837 5840 5842 5844 5847 5849 5850 5852 5854 5853 5856 5855 5856 5859 5859 5861 5861 5862 5863 5865 5865 5864 5864 5865 5864 5862 5861 5862 5860 5857 5856 5855 5854 5853 5851 5851 5850 5848 5850 5849 5849 5847
5826 5830 5832 5834 5836 5838 5840 5843 5845 5847 5848 5850 5850 5852 5853 5853 5857 5856 5858 5858 5860 5860 5862 5862 5862 5861 5861 5861 5861 5859 5859 5858 5856 5854 5853 5852 5850 5850 5847 5847 5846 5846 5844 5846 5844
5824 5826 5829 5831 5833 5835 5836 5839 5840 5843 5844 5846 5846 5849 5850 5851 5854 5853 5854 5855 5857 5858 5859 5860 5859 5859 5860 5859 5858 5856 5856 5855 5854 5852 5851 5850 5847 5847 5843 5844 5843 5842 5841 5839 5841
5819 5821 5825 5828 5830 5831 5833 5835 5836 5839 5841 5842 5843 5845 5848 5849 5850 5850 5850 5852 5854 5854 5855 5857 5856 5855 5856 5856 5855 5853 5852 5852 5851 5849 5849 5848 5843 5842 5841 5841 5839 5839 5837 5835 5835
5816 5819 5819 5823 5825 5826 5830 5830 5834 5836 5837 5839 5841 5842 5845 5847 5847 5845 5846 5847 5849 5850 5851 5852 5852 5851 5852 5852 5851 5849 5849 5848 5848 5846 5846 5845 5841 5838 5836 5836 5835 5835 5833 5832 5830
5813 5815 5816 5819 5821 5823 5825 5829 5829 5832 5836 5835 5837 5839 5841 5841 5844 5842 5843 5843 5844 5845 5846 5847 5847 5847 5847 5848 5848 5846 5845 5844 5845 5843 5841 5841 5838 5834 5832 5832 5832 5830 5828 5827 5826
5810 5812 5813 5816 5818 5820 5821 5824 5827 5831 5832 5832 5834 5837 5838 5837 5839 5839 5840 5838 5839 5840 5841 5842 5842 5842 5842 5843 5843 5843 5842 5839 5838 5839 5837 5835 5834 5829 5828 5827 5825 5823 5823 5822 5820
5807 5809 5810 5812 5816 5817 5820 5822 5825 5828 5829 5829 5832 5834 5834 5835 5834 5835 5835 5834 5835 5836 5837 5837 5837 5837 5837 5837 5839 5836 5836 5834 5833 5833 5833 5829 5829 5825 5822 5822 5820 5818 5816 5816 5815
5803 5805 5808 5810 5813 5814 5817 5820 5824 5826 5826 5828 5828 5830 5830 5831 5832 5831 5830 5830 5831 5831 5831 5832 5832 5832 5832 5832 5832 5832 5830 5829 5828 5827 5826 5823 5821 5820 5817 5814 5815 5813 5812 5810 5810
5799 5801 5805 5807 5810 5812 5815 5817 5819 5821 5824 5824 5826 5826 5826 5827 5827 5827 5827 5827 5827 5827 5827 5828 5827 5827 5827 5827 5827 5825 5824 5823 5824 5821 5820 5818 5816 5813 5811 5809 5808 5808 5807 5806 5804
5796 5799 5802 5804 5808 5810 5813 5814 5816 5815 5820 5822 5822 5824 5824 5824 5822 5824 5824 5824 5824 5823 5823 5823 5824 5822 5823 5822 5823 5820 5819 5819 5818 5817 5814 5814 5812 5808 5805 5805 5805 5803 5802 5801 5799
5794 5797 5799 5803 5807 5807 5809 5811 5813 5813 5817 5819 5819 5820 5820 5818 5820 5820 5821 5822 5821 5820 5820 5821 5820 5820 5820 5819 5818 5817 5815 5814 5812 5811 5812 5810 5812 5805 5799 5797 5798 5798 5795 5794 5792
5790 5792 5796 5799 5802 5805 5807 5808 5808 5810 5812 5816 5816 5815 5815 5817 5818 5818 5818 5818 5818 5817 5818 5820 5818 5817 5816 5815 5814 5813 5811 5809 5808 5806 5807 5806 5806 5802 5797 5793 5789 5790 5789 5788 5786
5785 5788 5791 5795 5797 5800 5802 5803 5804 5806 5808 5811 5811 5812 5813 5814 5814 5815 5815 5816 5815 5815 5815 5815 5815 5814 5812 5811 5810 5808 5807 5804 5803 5802 5801 5801 5802 5801 5796 5791 5784 5781 5782 5782 5779
5778 5782 5786 5788 5792 5794 5795 5798 5800 5800 5805 5807 5808 5808 5809 5810 5811 5811 5812 5812 5812 5812 5812 5812 5811 5810 5809 5808 5805 5803 5801 5799 5796 5796 5793 5793 5793 5794 5791 5786 5781 5777 5774 5773 5770
5772 5776 5779 5782 5785 5787 5790 5792 5795 5798 5801 5802 5803 5804 5805 5806 5807 5807 5808 5808 5808 5808 5807 5806 5807 5807 5804 5803 5801 5799 5797 5793 5789 5790 5789 5786 5788 5788 5783 5779 5774 5770 5766 5762 5758
5767 5770 5774 5776 5778 5782 5785 5787 5790 5793 5797 5797 5798 5799 5800 5801 5803 5803 5803 5804 5805 5804 5803 5802 5802 5802 5800 5798 5796 5794 5791 5788 5785 5784 5780 5779 5779 5776 5773 5769 5764 5759 5756 5753 5750
5760 5764 5769 5771 5773 5776 5778 5783 5786 5790 5790 5792 5793 5794 5795 5797 5797 5798 5797 5800 5799 5798 5797 5797 5797 5798 5796 5793 5790 5787 5784 5781 5779 5776 5772 5773 5771 5769 5765 5760 5757 5753 5748 5746 5743
5753 5758 5762 5765 5767 5770 5775 5779 5781 5784 5785 5787 5788 5789 5790 5790 5793 5793 5793 5795 5793 5792 5791 5791 5791 5792 5790 5787 5783 5780 5776 5775 5774 5770 5764 5763 5762 5761 5758 5755 5753 5749 5745 5740 5735
5746 5751 5754 5758 5762 5765 5771 5773 5776 5777 5778 5781 5783 5784 5785 5786 5787 5788 5787 5787 5786 5786 5785 5785 5782 5783 5781 5777 5775 5769 5768 5767 5763 5763 5761 5758 5761 5755 5751 5747 5744 5741 5736 5731 5726
5738 5743 5747 5750 5755 5760 5764 5765 5767 5771 5773 5775 5777 5780 5780 5780 5781 5781 5781 5781 5780 5779 5778 5779 5775 5775 5774 5773 5767 5765 5764 5763 5761 5758 5759 5754 5756 5749 5747 5744 5739 5733 5727 5723 5718
5730 5735 5740 5744 5749 5753 5754 5757 5761 5764 5766 5768 5771 5773 5773 5774 5774 5776 5775 5775 5773 5772 5770 5770 5770 5767 5767 5766 5762 5761 5759 5757 5756 5753 5753 5750 5748 5744 5740 5737 5733 5728 5722 5717 5710
5721 5727 5733 5737 5741 5745 5746 5752 5754 5757 5758 5761 5764 5767 5766 5767 5767 5768 5767 5766 5767 5764 5763 5763 5764 5762 5760 5759 5758 5757 5756 5754 5752 5749 5745 5747 5742 5737 5734 5731 5727 5720 5713 5709 5701
5713 5720 5725 5729 5735 5736 5739 5745 5746 5749 5752 5755 5758 5758 5758 5760 5759 5759 5760 5759 5757 5758 5757 5757 5758 5756 5754 5754 5753 5753 5750 5749 5746 5743 5740 5737 5735 5730 5724 5720 5717 5710 5700 5697 5690
5707 5712 5715 5719 5724 5727 5733 5736 5739 5740 5744 5747 5750 5749 5751 5752 5751 5751 5751 5751 5751 5750 5751 5752 5750 5749 5749 5748 5748 5748 5744 5741 5740 5736 5732 5730 5726 5721 5716 5710 5705 5698 5689 5685 5678